Date,TemperatureHighF,TemperatureAvgF,TemperatureLowF,DewpointHighF,DewpointAvgF,DewpointLowF,HumidityHigh,HumidityAvg,HumidityLow,PressureMaxIn,PressureMinIn,WindSpeedMaxMPH,WindSpeedAvgMPH,GustSpeedMaxMPH,PrecipitationSumIn
2013-4-1,41.1,33.5,27.0,26.3,22.8,18.9,84,66,45,30.25,29.97,19,7,24,0.00
2013-4-2,45.3,33.5,22.4,25.2,21.2,16.5,89,63,34,30.35,30.25,14,5,20,0.00
2013-4-3,49.9,35.2,22.5,24.3,20.7,16.9,88,59,28,30.47,30.30,12,3,15,0.00
2013-4-4,60.5,44.1,27.3,38.3,29.2,21.9,82,59,34,30.30,29.99,10,4,12,0.00
2013-4-5,44.9,38.4,33.6,36.2,31.3,28.1,87,76,58,30.22,30.05,13,4,17,0.00
2013-4-6,71.3,62.2,50.5,51.5,43.8,36.5,86,53,33,29.81,29.57,28,16,37,0.02
2013-4-7,65.4,52.0,37.5,46.3,42.0,35.6,94,71,44,29.93,29.69,16,5,22,0.00
2013-4-8,73.3,59.3,46.7,58.5,52.7,41.3,99,80,52,29.85,29.50,26,8,35,1.08
2013-4-9,77.7,56.6,42.7,64.6,52.4,41.0,95,87,62,29.89,29.72,21,9,26,0.00
2013-4-10,43.4,41.2,36.9,41.6,39.9,36.1,98,95,91,30.14,29.66,34,11,41,1.39
2013-4-11,47.8,42.5,37.3,46.2,41.2,33.6,98,95,86,29.71,29.58,16,7,22,0.13
2013-4-12,41.4,38.4,35.2,38.0,34.5,32.8,94,86,77,29.91,29.59,18,10,23,0.00
2013-4-13,50.4,41.2,34.3,40.1,33.5,29.1,90,75,56,30.00,29.90,16,8,21,0.00
2013-4-14,76.5,56.7,40.8,56.3,45.9,36.5,91,69,40,29.95,29.50,29,13,35,0.20
2013-4-15,62.1,52.0,41.8,56.3,47.2,38.0,98,85,52,30.00,29.63,15,5,18,0.38
2013-4-16,50.8,44.7,35.4,43.1,37.3,32.2,90,76,60,30.21,29.97,10,4,12,0.00
2013-4-17,56.2,45.1,41.3,56.2,42.5,37.0,100,91,74,30.24,29.67,25,9,32,2.38
2013-4-18,63.2,51.4,37.7,61.5,50.1,33.3,100,95,83,29.76,29.37,24,12,32,2.30
2013-4-19,38.8,36.4,34.9,33.3,30.9,28.6,89,80,73,30.01,29.56,23,15,31,0.00
2013-4-20,48.5,38.8,29.7,33.8,29.6,25.6,93,71,43,30.38,30.01,12,4,16,0.00
2013-4-21,58.9,50.4,34.7,45.1,40.5,30.1,85,70,57,30.39,30.23,22,10,28,0.00
2013-4-22,68.8,55.8,42.1,49.5,42.0,37.0,88,62,36,30.25,29.97,18,8,23,0.03
2013-4-23,52.8,42.7,38.6,49.8,40.3,34.1,97,91,80,30.03,29.91,13,6,18,0.37
2013-4-24,52.2,43.0,36.2,36.4,33.0,27.1,86,69,38,30.11,30.00,12,7,20,0.00
2013-4-25,54.9,45.0,36.2,38.9,32.1,24.4,90,63,32,30.29,30.09,18,8,24,0.01
2013-4-26,67.6,54.0,39.9,50.3,43.0,34.0,84,68,47,30.28,30.19,21,11,26,0.00
2013-4-27,65.8,55.0,41.9,50.0,46.8,40.6,97,76,51,30.25,29.96,15,5,21,0.00
2013-4-28,72.5,60.1,47.0,54.7,50.1,45.6,98,72,43,29.96,29.78,10,2,14,0.00
2013-4-29,80.3,64.9,48.3,62.0,55.4,46.7,95,74,50,29.86,29.64,20,11,26,0.00
2013-4-30,88.2,73.6,61.6,62.8,56.8,51.1,91,61,30,29.85,29.66,22,12,30,0.00